Time,TemperatureF,DewpointF,PressureIn,WindDirection,WindDirectionDegrees,WindSpeedMPH,WindSpeedGustMPH,Humidity,HourlyPrecipIn,Conditions,Clouds,dailyrainin,SoftwareType,DateUTC
2013-12-14 00:04:00,23.2,17.9,30.27,North,355,0.0,0.0,80,0.00,CLR,,0.00,WeatherDisplay:10.37,2013-12-14 05:04:00,
2013-12-14 00:09:00,23.2,17.9,30.27,North,351,0.0,0.0,80,0.00,CLR,,0.00,WeatherDisplay:10.37,2013-12-14 05:09:00,
2013-12-14 00:14:00,23.2,17.9,30.27,North,9,1.0,2.0,80,0.00,CLR,,0.00,WeatherDisplay:10.37,2013-12-14 05:14:00,
2013-12-14 00:19:00,23.2,17.9,30.27,ENE,68,0.0,3.0,80,0.00,CLR,,0.00,WeatherDisplay:10.37,2013-12-14 05:19:00,
2013-12-14 00:24:00,23.2,17.9,30.27,ENE,57,0.0,2.0,80,0.00,CLR,,0.00,WeatherDisplay:10.37,2013-12-14 05:24:00,
2013-12-14 00:29:00,23.2,17.9,30.27,NNE,28,0.0,1.0,80,0.00,CLR,,0.00,WeatherDisplay:10.37,2013-12-14 05:29:00,
2013-12-14 00:34:00,23.2,17.9,30.27,North,3,1.0,3.0,80,0.00,CLR,,0.00,WeatherDisplay:10.37,2013-12-14 05:34:00,
2013-12-14 00:39:00,23.2,17.9,30.27,North,352,1.0,2.0,80,0.00,CLR,,0.00,WeatherDisplay:10.37,2013-12-14 05:39:00,
2013-12-14 00:44:00,23.2,17.9,30.27,NNE,26,0.0,3.0,80,0.00,CLR,,0.00,WeatherDisplay:10.37,2013-12-14 05:44:00,
2013-12-14 00:49:00,23.0,17.7,30.27,ENE,64,1.0,3.0,80,0.00,CLR,,0.00,WeatherDisplay:10.37,2013-12-14 05:49:00,
2013-12-14 00:54:00,23.0,17.5,30.27,NE,53,0.0,3.0,79,0.00,CLR,,0.00,WeatherDisplay:10.37,2013-12-14 05:54:00,
2013-12-14 00:59:00,22.8,17.3,30.27,NE,40,0.0,0.0,79,0.00,CLR,,0.00,WeatherDisplay:10.37,2013-12-14 05:59:00,
2013-12-14 01:04:00,22.8,17.3,30.27,NE,56,0.0,0.0,79,0.00,CLR,,0.00,WeatherDisplay:10.37,2013-12-14 06:04:00,
2013-12-14 01:09:00,22.8,17.3,30.27,ENE,70,0.0,0.0,79,0.00,CLR,,0.00,WeatherDisplay:10.37,2013-12-14 06:09:00,
2013-12-14 01:14:00,22.8,17.3,30.27,ESE,114,0.0,0.0,79,0.00,CLR,,0.00,WeatherDisplay:10.37,2013-12-14 06:14:00,
2013-12-14 01:19:00,22.6,17.1,30.27,ESE,123,0.0,0.0,79,0.00,CLR,,0.00,WeatherDisplay:10.37,2013-12-14 06:19:00,
2013-12-14 01:24:00,22.5,16.9,30.27,NNW,328,0.0,0.0,79,0.00,CLR,,0.00,WeatherDisplay:10.37,2013-12-14 06:24:00,
2013-12-14 01:29:00,22.5,16.9,30.27,NW,320,0.0,0.0,79,0.00,CLR,,0.00,WeatherDisplay:10.37,2013-12-14 06:29:00,
2013-12-14 01:34:00,22.3,16.8,30.27,NNW,336,0.0,0.0,79,0.00,CLR,,0.00,WeatherDisplay:10.37,2013-12-14 06:34:00,
2013-12-14 01:39:00,22.3,16.8,30.27,North,10,0.0,0.0,79,0.00,CLR,,0.00,WeatherDisplay:10.37,2013-12-14 06:39:00,
2013-12-14 01:44:00,22.5,16.9,30.27,NNE,22,0.0,0.0,79,0.00,CLR,,0.00,WeatherDisplay:10.37,2013-12-14 06:44:00,
2013-12-14 01:49:00,22.3,16.8,30.27,North,8,0.0,0.0,79,0.00,CLR,,0.00,WeatherDisplay:10.37,2013-12-14 06:49:00,
2013-12-14 01:54:00,22.5,16.9,30.30,NNW,348,0.0,0.0,79,0.00,CLR,,0.00,WeatherDisplay:10.37,2013-12-14 06:54:00,
2013-12-14 01:59:00,22.5,16.9,30.30,North,350,0.0,0.0,79,0.00,CLR,,0.00,WeatherDisplay:10.37,2013-12-14 06:59:00,
2013-12-14 02:04:00,22.5,16.9,30.30,NNE,20,0.0,2.0,79,0.00,CLR,,0.00,WeatherDisplay:10.37,2013-12-14 07:04:00,
2013-12-14 02:09:00,22.5,16.9,30.30,NE,47,1.0,3.0,79,0.00,CLR,,0.00,WeatherDisplay:10.37,2013-12-14 07:09:00,
2013-12-14 02:14:00,22.5,16.6,30.30,NE,41,1.0,2.0,78,0.00,CLR,,0.00,WeatherDisplay:10.37,2013-12-14 07:14:00,
2013-12-14 02:19:00,22.5,16.6,30.30,East,99,2.0,3.0,78,0.00,CLR,,0.00,WeatherDisplay:10.37,2013-12-14 07:19:00,
2013-12-14 02:24:00,22.5,16.6,30.30,East,87,0.0,2.0,78,0.00,CLR,,0.00,WeatherDisplay:10.37,2013-12-14 07:24:00,
2013-12-14 02:29:00,22.5,16.6,30.30,ENE,78,0.0,1.0,78,0.00,CLR,,0.00,WeatherDisplay:10.37,2013-12-14 07:29:00,
2013-12-14 02:34:00,22.5,16.6,30.30,ENE,74,2.0,2.0,78,0.00,CLR,,0.00,WeatherDisplay:10.37,2013-12-14 07:34:00,
2013-12-14 02:39:00,22.5,16.6,30.30,ENE,68,0.0,2.0,78,0.00,CLR,,0.00,WeatherDisplay:10.37,2013-12-14 07:39:00,
2013-12-14 02:44:00,22.5,16.6,30.30,ENE,67,0.0,2.0,78,0.00,CLR,,0.00,WeatherDisplay:10.37,2013-12-14 07:44:00,
2013-12-14 02:49:00,22.5,16.6,30.30,NE,46,2.0,2.0,78,0.00,CLR,,0.00,WeatherDisplay:10.37,2013-12-14 07:49:00,
2013-12-14 02:54:00,22.5,16.6,30.30,ENE,63,2.0,3.0,78,0.00,CLR,,0.00,WeatherDisplay:10.37,2013-12-14 07:54:00,
2013-12-14 02:59:00,22.5,16.3,30.30,NNE,19,1.0,5.0,77,0.00,CLR,,0.00,WeatherDisplay:10.37,2013-12-14 07:59:00,
2013-12-14 03:04:00,22.5,16.3,30.30,NNE,17,2.0,3.0,77,0.00,CLR,,0.00,WeatherDisplay:10.37,2013-12-14 08:04:00,
2013-12-14 03:09:00,22.5,16.3,30.30,NE,50,1.0,3.0,77,0.00,CLR,,0.00,WeatherDisplay:10.37,2013-12-14 08:09:00,
2013-12-14 03:14:00,22.5,16.3,30.30,ENE,57,1.0,2.0,77,0.00,CLR,,0.00,WeatherDisplay:10.37,2013-12-14 08:14:00,
2013-12-14 03:19:00,22.5,16.3,30.30,East,80,1.0,2.0,77,0.00,CLR,,0.00,WeatherDisplay:10.37,2013-12-14 08:19:00,
2013-12-14 03:24:00,22.3,16.2,30.30,ENE,76,0.0,5.0,77,0.00,CLR,,0.00,WeatherDisplay:10.37,2013-12-14 08:24:00,
2013-12-14 03:29:00,22.3,15.9,30.30,NE,46,0.0,2.0,76,0.00,CLR,,0.00,WeatherDisplay:10.37,2013-12-14 08:29:00,
2013-12-14 03:34:00,22.3,15.9,30.30,NE,38,2.0,3.0,76,0.00,CLR,,0.00,WeatherDisplay:10.37,2013-12-14 08:34:00,
2013-12-14 03:39:00,22.1,15.7,30.30,NE,42,0.0,2.0,76,0.00,CLR,,0.00,WeatherDisplay:10.37,2013-12-14 08:39:00,
2013-12-14 03:44:00,22.1,15.7,30.30,NNE,21,1.0,2.0,76,0.00,CLR,,0.00,WeatherDisplay:10.37,2013-12-14 08:44:00,
2013-12-14 03:49:00,22.1,15.7,30.30,ENE,66,0.0,2.0,76,0.00,CLR,,0.00,WeatherDisplay:10.37,2013-12-14 08:49:00,
2013-12-14 03:54:00,22.1,15.4,30.33,ENE,70,0.0,3.0,75,0.00,CLR,,0.00,WeatherDisplay:10.37,2013-12-14 08:54:00,
2013-12-14 03:59:00,22.1,15.4,30.33,NE,48,1.0,2.0,75,0.00,CLR,,0.00,WeatherDisplay:10.37,2013-12-14 08:59:00,
2013-12-14 04:04:00,22.1,15.4,30.33,East,90,1.0,2.0,75,0.00,CLR,,0.00,WeatherDisplay:10.37,2013-12-14 09:04:00,
2013-12-14 04:09:00,22.1,15.4,30.33,SE,127,0.0,1.0,75,0.00,CLR,,0.00,WeatherDisplay:10.37,2013-12-14 09:09:00,
2013-12-14 04:14:00,22.1,15.7,30.33,NNE,26,0.0,0.0,76,0.00,CLR,,0.00,WeatherDisplay:10.37,2013-12-14 09:14:00,
2013-12-14 04:19:00,22.1,15.7,30.33,East,91,0.0,0.0,76,0.00,CLR,,0.00,WeatherDisplay:10.37,2013-12-14 09:19:00,
2013-12-14 04:24:00,22.1,15.7,30.33,East,95,2.0,3.0,76,0.00,CLR,,0.00,WeatherDisplay:10.37,2013-12-14 09:24:00,
2013-12-14 04:29:00,21.9,15.2,30.33,NNE,28,2.0,3.0,75,0.00,CLR,,0.00,WeatherDisplay:10.37,2013-12-14 09:29:00,
2013-12-14 04:34:00,21.9,15.2,30.33,NE,34,0.0,2.0,75,0.00,CLR,,0.00,WeatherDisplay:10.37,2013-12-14 09:34:00,
2013-12-14 04:39:00,21.9,15.2,30.33,NE,45,2.0,3.0,75,0.00,CLR,,0.00,WeatherDisplay:10.37,2013-12-14 09:39:00,
2013-12-14 04:44:00,21.9,15.2,30.33,ENE,71,3.0,4.0,75,0.00,CLR,,0.00,WeatherDisplay:10.37,2013-12-14 09:44:00,
2013-12-14 04:49:00,21.9,15.2,30.33,NE,56,0.0,4.0,75,0.00,CLR,,0.00,WeatherDisplay:10.37,2013-12-14 09:49:00,
2013-12-14 04:54:00,21.9,15.2,30.33,NE,37,2.0,4.0,75,0.00,CLR,,0.00,WeatherDisplay:10.37,2013-12-14 09:54:00,
2013-12-14 04:59:00,21.7,15.0,30.33,NE,54,2.0,3.0,75,0.00,CLR,,0.00,WeatherDisplay:10.37,2013-12-14 09:59:00,
2013-12-14 05:04:00,21.7,15.0,30.33,NE,54,2.0,6.0,75,0.00,CLR,,0.00,WeatherDisplay:10.37,2013-12-14 10:04:00,
2013-12-14 05:09:00,21.6,14.6,30.33,NE,42,1.0,3.0,74,0.00,CLR,,0.00,WeatherDisplay:10.37,2013-12-14 10:09:00,
2013-12-14 05:14:00,21.6,14.6,30.33,NNE,16,1.0,3.0,74,0.00,CLR,,0.00,WeatherDisplay:10.37,2013-12-14 10:14:00,
2013-12-14 05:19:00,21.6,14.6,30.33,North,10,1.0,3.0,74,0.00,CLR,,0.00,WeatherDisplay:10.37,2013-12-14 10:19:00,
2013-12-14 05:24:00,21.6,14.9,30.33,NE,56,1.0,2.0,75,0.00,CLR,,0.00,WeatherDisplay:10.37,2013-12-14 10:24:00,
2013-12-14 05:29:00,21.4,14.4,30.33,NE,46,2.0,6.0,74,0.00,CLR,,0.00,WeatherDisplay:10.37,2013-12-14 10:29:00,
2013-12-14 05:34:00,21.4,14.4,30.33,NE,39,1.0,4.0,74,0.00,CLR,,0.00,WeatherDisplay:10.37,2013-12-14 10:34:00,
2013-12-14 05:39:00,21.4,14.7,30.36,NNE,28,1.0,4.0,75,0.00,CLR,,0.00,WeatherDisplay:10.37,2013-12-14 10:39:00,
2013-12-14 05:44:00,21.4,14.7,30.36,NE,39,0.0,2.0,75,0.00,CLR,,0.00,WeatherDisplay:10.37,2013-12-14 10:44:00,
2013-12-14 05:49:00,21.2,14.5,30.36,NNE,27,2.0,3.0,75,0.00,CLR,,0.00,WeatherDisplay:10.37,2013-12-14 10:49:00,
2013-12-14 05:54:00,21.2,14.5,30.36,NE,43,2.0,3.0,75,0.00,CLR,,0.00,WeatherDisplay:10.37,2013-12-14 10:54:00,
2013-12-14 05:59:00,21.2,14.5,30.36,ENE,69,2.0,3.0,75,0.00,CLR,,0.00,WeatherDisplay:10.37,2013-12-14 10:59:00,
2013-12-14 06:04:00,21.2,14.8,30.36,ENE,70,3.0,4.0,76,0.00,CLR,,0.00,WeatherDisplay:10.37,2013-12-14 11:04:00,
2013-12-14 06:09:00,21.2,14.8,30.36,East,82,2.0,3.0,76,0.00,CLR,,0.00,WeatherDisplay:10.37,2013-12-14 11:09:00,
2013-12-14 06:14:00,21.2,14.8,30.36,ENE,75,0.0,2.0,76,0.00,CLR,,0.00,WeatherDisplay:10.37,2013-12-14 11:14:00,
2013-12-14 06:19:00,21.1,14.7,30.36,ENE,60,1.0,2.0,76,0.00,CLR,,0.00,WeatherDisplay:10.37,2013-12-14 11:19:00,
2013-12-14 06:24:00,21.0,14.6,30.36,ENE,65,0.0,2.0,76,0.00,CLR,,0.00,WeatherDisplay:10.37,2013-12-14 11:24:00,
2013-12-14 06:29:00,21.0,14.9,30.36,East,84,2.0,3.0,77,0.00,CLR,,0.00,WeatherDisplay:10.37,2013-12-14 11:29:00,
2013-12-14 06:34:00,21.0,14.9,30.36,ENE,69,0.0,1.0,77,0.00,CLR,,0.00,WeatherDisplay:10.37,2013-12-14 11:34:00,
2013-12-14 06:39:00,21.0,14.9,30.39,NE,44,0.0,2.0,77,0.00,CLR,,0.00,WeatherDisplay:10.37,2013-12-14 11:39:00,
2013-12-14 06:44:00,20.8,14.8,30.39,North,4,2.0,2.0,77,0.00,CLR,,0.00,WeatherDisplay:10.37,2013-12-14 11:44:00,
2013-12-14 06:49:00,20.7,14.9,30.39,NE,54,3.0,5.0,78,0.00,CLR,,0.00,WeatherDisplay:10.37,2013-12-14 11:49:00,
2013-12-14 06:54:00,20.5,14.7,30.39,NE,55,0.0,5.0,78,0.00,CLR,,0.00,WeatherDisplay:10.37,2013-12-14 11:54:00,
2013-12-14 06:59:00,20.5,14.7,30.39,ENE,76,2.0,4.0,78,0.00,CLR,,0.00,WeatherDisplay:10.37,2013-12-14 11:59:00,
2013-12-14 07:04:00,20.3,14.5,30.39,East,87,2.0,3.0,78,0.00,CLR,,0.00,WeatherDisplay:10.37,2013-12-14 12:04:00,
2013-12-14 07:09:00,20.3,14.5,30.39,ENE,77,2.0,3.0,78,0.00,CLR,,0.00,WeatherDisplay:10.37,2013-12-14 12:09:00,
2013-12-14 07:14:00,20.3,14.8,30.39,ENE,70,2.0,3.0,79,0.00,CLR,,0.00,WeatherDisplay:10.37,2013-12-14 12:14:00,
2013-12-14 07:19:00,20.1,14.7,30.39,ENE,70,0.0,3.0,79,0.00,CLR,,0.00,WeatherDisplay:10.37,2013-12-14 12:19:00,
2013-12-14 07:24:00,20.1,14.6,30.39,East,84,0.0,0.0,79,0.00,CLR,,0.00,WeatherDisplay:10.37,2013-12-14 12:24:00,
2013-12-14 07:29:00,19.9,14.5,30.39,North,6,0.0,3.0,79,0.00,CLR,,0.00,WeatherDisplay:10.37,2013-12-14 12:29:00,
2013-12-14 07:34:00,19.9,14.5,30.39,NNE,13,0.0,2.0,79,0.00,CLR,,0.00,WeatherDisplay:10.37,2013-12-14 12:34:00,
2013-12-14 07:39:00,19.9,14.5,30.39,East,84,1.0,2.0,79,0.00,CLR,,0.00,WeatherDisplay:10.37,2013-12-14 12:39:00,
2013-12-14 07:44:00,19.8,14.3,30.39,East,83,2.0,3.0,79,0.00,CLR,,0.00,WeatherDisplay:10.37,2013-12-14 12:44:00,
2013-12-14 07:49:00,19.8,14.3,30.39,East,89,2.0,3.0,79,0.00,CLR,,0.00,WeatherDisplay:10.37,2013-12-14 12:49:00,
2013-12-14 07:54:00,19.8,14.3,30.39,ENE,76,1.0,2.0,79,0.00,CLR,,0.00,WeatherDisplay:10.37,2013-12-14 12:54:00,
2013-12-14 07:59:00,19.6,14.1,30.39,ENE,72,0.0,2.0,79,0.00,CLR,,0.00,WeatherDisplay:10.37,2013-12-14 12:59:00,
2013-12-14 08:04:00,19.6,14.1,30.39,ENE,64,0.0,0.0,79,0.00,CLR,,0.00,WeatherDisplay:10.37,2013-12-14 13:04:00,
2013-12-14 08:09:00,19.6,14.4,30.42,ENE,66,1.0,3.0,80,0.00,CLR,,0.00,WeatherDisplay:10.37,2013-12-14 13:09:00,
2013-12-14 08:14:00,19.6,14.4,30.42,NE,54,2.0,2.0,80,0.00,CLR,,0.00,WeatherDisplay:10.37,2013-12-14 13:14:00,
2013-12-14 08:19:00,19.6,14.4,30.42,NE,38,0.0,2.0,80,0.00,CLR,,0.00,WeatherDisplay:10.37,2013-12-14 13:19:00,
2013-12-14 08:24:00,19.6,14.4,30.42,ENE,70,1.0,3.0,80,0.00,CLR,,0.00,WeatherDisplay:10.37,2013-12-14 13:24:00,
2013-12-14 08:29:00,19.6,14.4,30.42,NE,55,1.0,3.0,80,0.00,CLR,,0.00,WeatherDisplay:10.37,2013-12-14 13:29:00,
2013-12-14 08:34:00,19.6,14.4,30.42,ENE,66,2.0,3.0,80,0.00,CLR,,0.00,WeatherDisplay:10.37,2013-12-14 13:34:00,
2013-12-14 08:39:00,19.6,14.4,30.42,ENE,77,1.0,2.0,80,0.00,CLR,,0.00,WeatherDisplay:10.37,2013-12-14 13:39:00,
2013-12-14 08:44:00,19.6,14.4,30.42,ENE,58,1.0,3.0,80,0.00,CLR,,0.00,WeatherDisplay:10.37,2013-12-14 13:44:00,
2013-12-14 08:49:00,19.6,14.4,30.42,NNE,26,1.0,3.0,80,0.00,CLR,,0.00,WeatherDisplay:10.37,2013-12-14 13:49:00,
2013-12-14 08:54:00,19.6,14.4,30.42,NE,37,0.0,0.0,80,0.00,CLR,,0.00,WeatherDisplay:10.37,2013-12-14 13:54:00,
2013-12-14 08:59:00,19.8,14.6,30.42,ENE,75,2.0,3.0,80,0.00,CLR,,0.00,WeatherDisplay:10.37,2013-12-14 13:59:00,
2013-12-14 09:04:00,19.8,14.6,30.42,NE,43,2.0,3.0,80,0.00,CLR,,0.00,WeatherDisplay:10.37,2013-12-14 14:04:00,
2013-12-14 09:09:00,19.6,14.4,30.44,ENE,67,2.0,3.0,80,0.00,CLR,,0.00,WeatherDisplay:10.37,2013-12-14 14:09:00,
2013-12-14 09:14:00,19.8,14.6,30.44,ENE,78,2.0,3.0,80,0.00,CLR,,0.00,WeatherDisplay:10.37,2013-12-14 14:14:00,
2013-12-14 09:19:00,19.6,14.4,30.44,ENE,70,2.0,3.0,80,0.00,CLR,,0.00,WeatherDisplay:10.37,2013-12-14 14:19:00,
2013-12-14 09:24:00,19.6,14.4,30.44,NE,41,2.0,3.0,80,0.00,CLR,,0.00,WeatherDisplay:10.37,2013-12-14 14:24:00,
2013-12-14 09:29:00,19.6,14.4,30.44,NE,37,2.0,5.0,80,0.00,CLR,,0.00,WeatherDisplay:10.37,2013-12-14 14:29:00,
2013-12-14 09:34:00,19.4,14.5,30.44,NE,56,3.0,3.0,81,0.00,CLR,,0.00,WeatherDisplay:10.37,2013-12-14 14:34:00,
2013-12-14 09:39:00,19.4,14.5,30.44,ENE,59,2.0,6.0,81,0.00,CLR,,0.00,WeatherDisplay:10.37,2013-12-14 14:39:00,
2013-12-14 09:44:00,19.4,14.5,30.44,ENE,78,2.0,5.0,81,0.00,CLR,,0.00,WeatherDisplay:10.37,2013-12-14 14:44:00,
2013-12-14 09:49:00,19.4,14.5,30.44,East,91,3.0,5.0,81,0.00,CLR,,0.00,WeatherDisplay:10.37,2013-12-14 14:49:00,
2013-12-14 09:54:00,19.2,14.3,30.44,East,80,2.0,4.0,81,0.00,CLR,,0.00,WeatherDisplay:10.37,2013-12-14 14:54:00,
2013-12-14 09:59:00,19.4,14.5,30.44,NE,51,2.0,3.0,81,0.00,CLR,,0.00,WeatherDisplay:10.37,2013-12-14 14:59:00,
2013-12-14 10:04:00,19.2,14.3,30.44,NNE,27,2.0,2.0,81,0.00,CLR,,0.00,WeatherDisplay:10.37,2013-12-14 15:04:00,
2013-12-14 10:09:00,19.2,14.3,30.44,NE,46,2.0,2.0,81,0.00,CLR,,0.00,WeatherDisplay:10.37,2013-12-14 15:09:00,
2013-12-14 10:14:00,19.4,14.5,30.44,NE,51,0.0,2.0,81,0.00,CLR,,0.00,WeatherDisplay:10.37,2013-12-14 15:14:00,
2013-12-14 10:19:00,19.6,14.7,30.44,ENE,63,2.0,3.0,81,0.00,CLR,,0.00,WeatherDisplay:10.37,2013-12-14 15:19:00,
2013-12-14 10:24:00,19.6,14.7,30.44,East,86,3.0,5.0,81,0.00,CLR,,0.00,WeatherDisplay:10.37,2013-12-14 15:24:00,
2013-12-14 10:29:00,19.8,14.9,30.44,ENE,74,2.0,3.0,81,0.00,CLR,,0.00,WeatherDisplay:10.37,2013-12-14 15:29:00,
2013-12-14 10:34:00,19.8,14.9,30.44,East,101,2.0,6.0,81,0.00,CLR,,0.00,WeatherDisplay:10.37,2013-12-14 15:34:00,
2013-12-14 10:39:00,19.8,14.9,30.44,ENE,64,2.0,4.0,81,0.00,CLR,,0.00,WeatherDisplay:10.37,2013-12-14 15:39:00,
2013-12-14 10:44:00,19.8,14.9,30.44,NE,47,2.0,5.0,81,0.00,CLR,,0.00,WeatherDisplay:10.37,2013-12-14 15:44:00,
2013-12-14 10:49:00,19.8,14.9,30.44,ENE,70,0.0,3.0,81,0.00,CLR,,0.00,WeatherDisplay:10.37,2013-12-14 15:49:00,
2013-12-14 10:54:00,19.8,14.9,30.44,ENE,69,1.0,2.0,81,0.00,CLR,,0.00,WeatherDisplay:10.37,2013-12-14 15:54:00,
2013-12-14 10:59:00,19.8,14.9,30.44,NE,47,2.0,5.0,81,0.00,CLR,,0.00,WeatherDisplay:10.37,2013-12-14 15:59:00,
2013-12-14 11:04:00,19.9,15.0,30.44,NE,54,0.0,5.0,81,0.00,CLR,,0.00,WeatherDisplay:10.37,2013-12-14 16:04:00,
2013-12-14 11:09:00,19.9,15.0,30.44,ENE,72,3.0,3.0,81,0.00,CLR,,0.00,WeatherDisplay:10.37,2013-12-14 16:09:00,
2013-12-14 11:14:00,19.9,15.0,30.44,East,86,2.0,3.0,81,0.00,CLR,,0.00,WeatherDisplay:10.37,2013-12-14 16:14:00,
2013-12-14 11:19:00,19.9,15.0,30.44,East,92,3.0,3.0,81,0.00,CLR,,0.00,WeatherDisplay:10.37,2013-12-14 16:19:00,
2013-12-14 11:24:00,19.9,15.0,30.44,ENE,66,0.0,3.0,81,0.00,CLR,,0.00,WeatherDisplay:10.37,2013-12-14 16:24:00,
2013-12-14 11:29:00,19.9,15.3,30.44,NE,52,0.0,3.0,82,0.00,CLR,,0.00,WeatherDisplay:10.37,2013-12-14 16:29:00,
2013-12-14 11:34:00,19.9,15.3,30.44,East,89,0.0,1.0,82,0.00,CLR,,0.00,WeatherDisplay:10.37,2013-12-14 16:34:00,
2013-12-14 11:39:00,20.1,15.5,30.42,East,95,0.0,2.0,82,0.00,CLR,,0.00,WeatherDisplay:10.37,2013-12-14 16:39:00,
2013-12-14 11:44:00,20.1,15.5,30.42,ESE,105,0.0,0.0,82,0.00,CLR,,0.00,WeatherDisplay:10.37,2013-12-14 16:44:00,
2013-12-14 11:49:00,20.1,15.5,30.42,NE,41,0.0,2.0,82,0.00,CLR,,0.00,WeatherDisplay:10.37,2013-12-14 16:49:00,
2013-12-14 11:54:00,19.9,15.3,30.42,NNE,12,1.0,2.0,82,0.00,CLR,,0.00,WeatherDisplay:10.37,2013-12-14 16:54:00,
2013-12-14 11:59:00,19.9,15.3,30.42,NE,38,0.0,3.0,82,0.00,CLR,,0.00,WeatherDisplay:10.37,2013-12-14 16:59:00,
2013-12-14 12:04:00,20.1,15.5,30.42,ENE,61,1.0,3.0,82,0.00,CLR,,0.00,WeatherDisplay:10.37,2013-12-14 17:04:00,
2013-12-14 12:09:00,20.1,15.5,30.42,East,88,3.0,3.0,82,0.00,CLR,,0.00,WeatherDisplay:10.37,2013-12-14 17:09:00,
2013-12-14 12:14:00,20.2,15.6,30.42,ESE,102,0.0,3.0,82,0.00,CLR,,0.00,WeatherDisplay:10.37,2013-12-14 17:14:00,
2013-12-14 12:19:00,20.3,15.7,30.42,ESE,108,1.0,3.0,82,0.00,CLR,,0.00,WeatherDisplay:10.37,2013-12-14 17:19:00,
2013-12-14 12:24:00,20.3,15.7,30.39,East,92,2.0,3.0,82,0.00,CLR,,0.00,WeatherDisplay:10.37,2013-12-14 17:24:00,
2013-12-14 12:29:00,20.5,15.9,30.39,East,89,0.0,1.0,82,0.00,CLR,,0.00,WeatherDisplay:10.37,2013-12-14 17:29:00,
2013-12-14 12:34:00,20.5,15.9,30.39,East,90,1.0,1.0,82,0.00,CLR,,0.00,WeatherDisplay:10.37,2013-12-14 17:34:00,
2013-12-14 12:39:00,20.5,15.9,30.39,East,91,1.0,2.0,82,0.00,CLR,,0.00,WeatherDisplay:10.37,2013-12-14 17:39:00,
2013-12-14 12:44:00,20.5,15.9,30.39,ENE,74,2.0,2.0,82,0.00,CLR,,0.00,WeatherDisplay:10.37,2013-12-14 17:44:00,
2013-12-14 12:49:00,20.5,15.9,30.39,ENE,68,2.0,2.0,82,0.00,CLR,,0.00,WeatherDisplay:10.37,2013-12-14 17:49:00,
2013-12-14 12:54:00,20.5,15.9,30.39,ENE,68,2.0,2.0,82,0.00,CLR,,0.00,WeatherDisplay:10.37,2013-12-14 17:54:00,
2013-12-14 12:59:00,20.5,15.9,30.39,ENE,64,0.0,2.0,82,0.00,CLR,,0.00,WeatherDisplay:10.37,2013-12-14 17:59:00,
2013-12-14 13:04:00,20.6,16.0,30.39,NE,48,1.0,2.0,82,0.00,CLR,,0.00,WeatherDisplay:10.37,2013-12-14 18:04:00,
2013-12-14 13:09:00,20.6,16.0,30.39,NE,46,1.0,2.0,82,0.00,CLR,,0.00,WeatherDisplay:10.37,2013-12-14 18:09:00,
2013-12-14 13:14:00,20.6,16.0,30.39,NE,50,2.0,3.0,82,0.00,CLR,,0.00,WeatherDisplay:10.37,2013-12-14 18:14:00,
2013-12-14 13:19:00,20.3,15.7,30.39,NE,48,3.0,3.0,82,0.00,CLR,,0.00,WeatherDisplay:10.37,2013-12-14 18:19:00,
2013-12-14 13:24:00,20.3,15.7,30.39,NE,53,3.0,4.0,82,0.00,CLR,,0.00,WeatherDisplay:10.37,2013-12-14 18:24:00,
2013-12-14 13:29:00,20.1,15.5,30.39,NNW,336,3.0,4.0,82,0.00,CLR,,0.00,WeatherDisplay:10.37,2013-12-14 18:29:00,
2013-12-14 13:34:00,20.0,15.4,30.39,NW,315,3.0,4.0,82,0.00,CLR,,0.00,WeatherDisplay:10.37,2013-12-14 18:34:00,
2013-12-14 13:39:00,19.9,15.3,30.39,NW,326,2.0,4.0,82,0.00,CLR,,0.00,WeatherDisplay:10.37,2013-12-14 18:39:00,
2013-12-14 13:44:00,19.8,15.2,30.39,North,357,2.0,2.0,82,0.00,CLR,,0.00,WeatherDisplay:10.37,2013-12-14 18:44:00,
2013-12-14 13:49:00,19.8,15.2,30.39,North,7,2.0,2.0,82,0.00,CLR,,0.00,WeatherDisplay:10.37,2013-12-14 18:49:00,
2013-12-14 13:54:00,19.6,15.0,30.36,NNE,31,1.0,2.0,82,0.00,CLR,,0.00,WeatherDisplay:10.37,2013-12-14 18:54:00,
2013-12-14 13:59:00,19.6,15.0,30.36,SE,134,3.0,4.0,82,0.00,CLR,,0.00,WeatherDisplay:10.37,2013-12-14 18:59:00,
2013-12-14 14:04:00,19.6,15.0,30.36,ESE,112,1.0,3.0,82,0.00,CLR,,0.00,WeatherDisplay:10.37,2013-12-14 19:04:00,
2013-12-14 14:09:00,19.4,14.8,30.36,NE,44,1.0,2.0,82,0.00,CLR,,0.00,WeatherDisplay:10.37,2013-12-14 19:09:00,
2013-12-14 14:19:00,19.2,14.6,30.36,East,81,1.0,6.0,82,0.00,CLR,,0.00,WeatherDisplay:10.37,2013-12-14 19:19:00,
2013-12-14 14:24:00,19.0,14.4,30.36,NE,44,2.0,5.0,82,0.00,CLR,,0.00,WeatherDisplay:10.37,2013-12-14 19:24:00,
2013-12-14 14:29:00,18.9,14.3,30.36,NE,39,2.0,3.0,82,0.00,CLR,,0.00,WeatherDisplay:10.37,2013-12-14 19:29:00,
2013-12-14 14:34:00,18.7,14.1,30.36,NNE,33,1.0,2.0,82,0.00,CLR,,0.00,WeatherDisplay:10.37,2013-12-14 19:34:00,
2013-12-14 14:39:00,18.6,14.0,30.36,ENE,59,0.0,0.0,82,0.00,CLR,,0.00,WeatherDisplay:10.37,2013-12-14 19:39:00,
2013-12-14 14:44:00,18.5,13.9,30.36,East,89,0.0,0.0,82,0.00,CLR,,0.00,WeatherDisplay:10.37,2013-12-14 19:44:00,
2013-12-14 14:49:00,18.3,13.7,30.36,East,79,1.0,2.0,82,0.00,CLR,,0.00,WeatherDisplay:10.37,2013-12-14 19:49:00,
2013-12-14 14:54:00,18.3,13.7,30.36,East,87,2.0,5.0,82,0.00,CLR,,0.00,WeatherDisplay:10.37,2013-12-14 19:54:00,
2013-12-14 14:59:00,18.1,13.6,30.36,East,85,0.0,2.0,82,0.00,CLR,,0.00,WeatherDisplay:10.37,2013-12-14 19:59:00,
2013-12-14 15:04:00,18.1,13.6,30.36,ENE,57,1.0,3.0,82,0.00,CLR,,0.00,WeatherDisplay:10.37,2013-12-14 20:04:00,
2013-12-14 15:09:00,17.9,13.3,30.36,NE,49,2.0,3.0,82,0.00,CLR,,0.00,WeatherDisplay:10.37,2013-12-14 20:09:00,
2013-12-14 15:14:00,17.8,13.2,30.36,NNE,25,0.0,2.0,82,0.00,CLR,,0.00,WeatherDisplay:10.37,2013-12-14 20:14:00,
2013-12-14 15:19:00,17.8,13.2,30.36,NE,39,0.0,5.0,82,0.00,CLR,,0.00,WeatherDisplay:10.37,2013-12-14 20:19:00,
2013-12-14 15:24:00,17.8,13.2,30.36,East,90,2.0,3.0,82,0.00,CLR,,0.00,WeatherDisplay:10.37,2013-12-14 20:24:00,
2013-12-14 15:29:00,17.6,13.3,30.36,East,100,1.0,4.0,83,0.00,CLR,,0.00,WeatherDisplay:10.37,2013-12-14 20:29:00,
2013-12-14 15:34:00,17.6,13.3,30.36,East,79,0.0,2.0,83,0.00,CLR,,0.00,WeatherDisplay:10.37,2013-12-14 20:34:00,
2013-12-14 15:39:00,17.4,13.1,30.33,NNE,31,1.0,5.0,83,0.00,CLR,,0.00,WeatherDisplay:10.37,2013-12-14 20:39:00,
2013-12-14 15:44:00,17.4,13.1,30.33,North,9,0.0,3.0,83,0.00,CLR,,0.00,WeatherDisplay:10.37,2013-12-14 20:44:00,
2013-12-14 15:49:00,17.2,13.0,30.33,NE,37,2.0,3.0,83,0.00,CLR,,0.00,WeatherDisplay:10.37,2013-12-14 20:49:00,
2013-12-14 15:54:00,17.1,12.8,30.33,East,98,1.0,4.0,83,0.00,CLR,,0.00,WeatherDisplay:10.37,2013-12-14 20:54:00,
2013-12-14 15:59:00,17.1,12.8,30.33,ESE,115,2.0,3.0,83,0.00,CLR,,0.00,WeatherDisplay:10.37,2013-12-14 20:59:00,
2013-12-14 16:04:00,17.1,12.8,30.33,NNE,33,1.0,3.0,83,0.00,CLR,,0.00,WeatherDisplay:10.37,2013-12-14 21:04:00,
2013-12-14 16:09:00,17.0,12.7,30.33,North,11,1.0,2.0,83,0.00,CLR,,0.00,WeatherDisplay:10.37,2013-12-14 21:09:00,
2013-12-14 16:14:00,16.9,12.6,30.33,ENE,72,0.0,4.0,83,0.00,CLR,,0.00,WeatherDisplay:10.37,2013-12-14 21:14:00,
2013-12-14 16:19:00,16.9,12.6,30.33,East,79,1.0,4.0,83,0.00,CLR,,0.00,WeatherDisplay:10.37,2013-12-14 21:19:00,
2013-12-14 16:24:00,16.9,12.6,30.30,ENE,65,2.0,3.0,83,0.00,CLR,,0.00,WeatherDisplay:10.37,2013-12-14 21:24:00,
2013-12-14 16:29:00,16.9,12.6,30.30,NE,43,2.0,3.0,83,0.00,CLR,,0.00,WeatherDisplay:10.37,2013-12-14 21:29:00,
2013-12-14 16:34:00,16.7,12.4,30.30,ENE,57,3.0,4.0,83,0.00,CLR,,0.00,WeatherDisplay:10.37,2013-12-14 21:34:00,
2013-12-14 16:39:00,16.7,12.4,30.30,ENE,58,1.0,3.0,83,0.00,CLR,,0.00,WeatherDisplay:10.37,2013-12-14 21:39:00,
2013-12-14 16:44:00,16.7,12.4,30.30,ENE,65,2.0,3.0,83,0.00,CLR,,0.00,WeatherDisplay:10.37,2013-12-14 21:44:00,
2013-12-14 16:49:00,16.9,12.6,30.30,NE,55,2.0,4.0,83,0.00,CLR,,0.00,WeatherDisplay:10.37,2013-12-14 21:49:00,
2013-12-14 16:54:00,16.9,12.6,30.30,NNE,19,1.0,4.0,83,0.00,CLR,,0.00,WeatherDisplay:10.37,2013-12-14 21:54:00,
2013-12-14 16:59:00,16.9,12.6,30.30,NNE,26,2.0,6.0,83,0.00,CLR,,0.00,WeatherDisplay:10.37,2013-12-14 21:59:00,
2013-12-14 17:04:00,16.9,12.6,30.30,NE,42,2.0,6.0,83,0.00,CLR,,0.00,WeatherDisplay:10.37,2013-12-14 22:04:00,
2013-12-14 17:09:00,16.9,12.6,30.27,NNE,30,1.0,6.0,83,0.00,CLR,,0.00,WeatherDisplay:10.37,2013-12-14 22:09:00,
2013-12-14 17:19:00,16.9,12.6,30.27,NE,55,2.0,5.0,83,0.00,CLR,,0.00,WeatherDisplay:10.37,2013-12-14 22:19:00,
2013-12-14 17:24:00,16.9,12.6,30.27,NE,50,2.0,5.0,83,0.00,CLR,,0.00,WeatherDisplay:10.37,2013-12-14 22:24:00,
2013-12-14 17:29:00,17.0,12.8,30.27,NE,43,2.0,5.0,83,0.00,CLR,,0.00,WeatherDisplay:10.37,2013-12-14 22:29:00,
2013-12-14 17:34:00,17.1,12.8,30.27,ENE,77,3.0,5.0,83,0.00,CLR,,0.00,WeatherDisplay:10.37,2013-12-14 22:34:00,
2013-12-14 17:39:00,17.1,12.8,30.24,East,94,1.0,4.0,83,0.00,CLR,,0.00,WeatherDisplay:10.37,2013-12-14 22:39:00,
2013-12-14 17:44:00,17.1,12.8,30.24,ENE,68,2.0,5.0,83,0.00,CLR,,0.00,WeatherDisplay:10.37,2013-12-14 22:44:00,
2013-12-14 17:49:00,17.2,13.0,30.24,ENE,57,3.0,3.0,83,0.00,CLR,,0.00,WeatherDisplay:10.37,2013-12-14 22:49:00,
2013-12-14 17:54:00,17.4,13.1,30.21,ENE,61,1.0,6.0,83,0.00,CLR,,0.00,WeatherDisplay:10.37,2013-12-14 22:54:00,
2013-12-14 17:59:00,17.4,13.1,30.21,NE,49,2.0,4.0,83,0.00,CLR,,0.00,WeatherDisplay:10.37,2013-12-14 22:59:00,
2013-12-14 18:04:00,17.4,13.1,30.21,ENE,63,5.0,6.0,83,0.00,CLR,,0.00,WeatherDisplay:10.37,2013-12-14 23:04:00,
2013-12-14 18:09:00,17.6,13.6,30.21,ENE,73,3.0,5.0,84,0.00,CLR,,0.00,WeatherDisplay:10.37,2013-12-14 23:09:00,
2013-12-14 18:14:00,17.6,13.6,30.21,NE,56,2.0,5.0,84,0.00,CLR,,0.00,WeatherDisplay:10.37,2013-12-14 23:14:00,
2013-12-14 18:19:00,17.8,13.5,30.21,NE,35,3.0,4.0,83,0.00,CLR,,0.00,WeatherDisplay:10.37,2013-12-14 23:19:00,
2013-12-14 18:29:00,18.1,13.8,30.24,ENE,65,2.0,5.0,83,0.00,CLR,,0.00,WeatherDisplay:10.37,2013-12-14 23:29:00,
2013-12-14 18:34:00,18.1,14.1,30.24,ENE,78,5.0,6.0,84,0.00,CLR,,0.00,WeatherDisplay:10.37,2013-12-14 23:34:00,
2013-12-14 18:39:00,18.1,14.1,30.24,ENE,73,2.0,6.0,84,0.00,CLR,,0.00,WeatherDisplay:10.37,2013-12-14 23:39:00,
2013-12-14 18:44:00,18.3,14.3,30.24,ENE,66,2.0,5.0,84,0.00,CLR,,0.00,WeatherDisplay:10.37,2013-12-14 23:44:00,
2013-12-14 18:49:00,18.3,14.3,30.24,ENE,59,2.0,5.0,84,0.00,CLR,,0.00,WeatherDisplay:10.37,2013-12-14 23:49:00,
2013-12-14 18:54:00,18.3,14.3,30.21,NE,56,1.0,4.0,84,0.00,CLR,,0.00,WeatherDisplay:10.37,2013-12-14 23:54:00,
2013-12-14 18:59:00,18.3,14.3,30.21,NE,50,2.0,3.0,84,0.00,CLR,,0.00,WeatherDisplay:10.37,2013-12-14 23:59:00,
2013-12-14 19:04:00,18.5,14.5,30.21,NE,47,2.0,3.0,84,0.00,CLR,,0.00,WeatherDisplay:10.37,2013-12-15 00:04:00,
2013-12-14 19:09:00,18.5,14.5,30.21,NE,37,2.0,3.0,84,0.00,CLR,,0.00,WeatherDisplay:10.37,2013-12-15 00:09:00,
2013-12-14 19:14:00,18.5,14.5,30.21,NNE,26,3.0,5.0,84,0.00,CLR,,0.00,WeatherDisplay:10.37,2013-12-15 00:14:00,
2013-12-14 19:19:00,18.7,14.6,30.21,NE,44,2.0,3.0,84,0.00,CLR,,0.00,WeatherDisplay:10.37,2013-12-15 00:19:00,
2013-12-14 19:24:00,18.7,14.6,30.18,ENE,75,3.0,5.0,84,0.00,CLR,,0.00,WeatherDisplay:10.37,2013-12-15 00:24:00,
2013-12-14 19:29:00,18.9,15.1,30.18,ENE,58,2.0,4.0,85,0.00,CLR,,0.00,WeatherDisplay:10.37,2013-12-15 00:29:00,
2013-12-14 19:34:00,19.0,15.3,30.18,ENE,64,1.0,4.0,85,0.00,CLR,,0.00,WeatherDisplay:10.37,2013-12-15 00:34:00,
2013-12-14 19:39:00,19.0,15.3,30.15,NE,55,3.0,4.0,85,0.00,CLR,,0.00,WeatherDisplay:10.37,2013-12-15 00:39:00,
2013-12-14 19:44:00,19.2,15.5,30.15,ENE,66,3.0,3.0,85,0.00,CLR,,0.00,WeatherDisplay:10.37,2013-12-15 00:44:00,
2013-12-14 19:49:00,19.2,15.5,30.15,NE,48,2.0,5.0,85,0.00,CLR,,0.00,WeatherDisplay:10.37,2013-12-15 00:49:00,
2013-12-14 19:54:00,19.2,15.5,30.15,NE,54,2.0,5.0,85,0.00,CLR,,0.00,WeatherDisplay:10.37,2013-12-15 00:54:00,
2013-12-14 19:59:00,19.4,15.6,30.15,NE,48,3.0,4.0,85,0.00,CLR,,0.00,WeatherDisplay:10.37,2013-12-15 00:59:00,
2013-12-14 20:04:00,19.4,15.6,30.15,NE,42,2.0,4.0,85,0.00,CLR,,0.00,WeatherDisplay:10.37,2013-12-15 01:04:00,
2013-12-14 20:09:00,19.6,15.8,30.15,NE,47,3.0,3.0,85,0.00,CLR,,0.00,WeatherDisplay:10.37,2013-12-15 01:09:00,
2013-12-14 20:14:00,19.6,15.8,30.15,NE,52,2.0,4.0,85,0.00,CLR,,0.00,WeatherDisplay:10.37,2013-12-15 01:14:00,
2013-12-14 20:19:00,19.8,16.0,30.15,ENE,72,1.0,3.0,85,0.00,CLR,,0.00,WeatherDisplay:10.37,2013-12-15 01:19:00,
2013-12-14 20:24:00,19.9,16.1,30.12,ENE,66,2.0,4.0,85,0.00,CLR,,0.00,WeatherDisplay:10.37,2013-12-15 01:24:00,
2013-12-14 20:29:00,19.9,16.2,30.12,NE,38,1.0,3.0,85,0.00,CLR,,0.00,WeatherDisplay:10.37,2013-12-15 01:29:00,
2013-12-14 20:34:00,20.0,16.5,30.12,NNE,30,2.0,3.0,86,0.00,CLR,,0.00,WeatherDisplay:10.37,2013-12-15 01:34:00,
2013-12-14 20:39:00,20.1,16.6,30.12,ENE,59,3.0,5.0,86,0.00,CLR,,0.00,WeatherDisplay:10.37,2013-12-15 01:39:00,
2013-12-14 20:44:00,20.3,16.8,30.12,ENE,62,1.0,3.0,86,0.00,CLR,,0.00,WeatherDisplay:10.37,2013-12-15 01:44:00,
2013-12-14 20:49:00,20.3,16.8,30.12,NE,47,3.0,5.0,86,0.00,CLR,,0.00,WeatherDisplay:10.37,2013-12-15 01:49:00,
2013-12-14 20:54:00,20.3,16.8,30.12,NE,54,2.0,5.0,86,0.00,CLR,,0.00,WeatherDisplay:10.37,2013-12-15 01:54:00,
2013-12-14 20:59:00,20.5,17.0,30.12,ENE,58,2.0,4.0,86,0.00,CLR,,0.00,WeatherDisplay:10.37,2013-12-15 01:59:00,
2013-12-14 21:04:00,20.5,17.0,30.12,NE,51,2.0,4.0,86,0.00,CLR,,0.00,WeatherDisplay:10.37,2013-12-15 02:04:00,
2013-12-14 21:09:00,20.7,17.1,30.09,NE,44,2.0,3.0,86,0.00,CLR,,0.00,WeatherDisplay:10.37,2013-12-15 02:09:00,
2013-12-14 21:14:00,20.8,17.6,30.09,NE,53,2.0,10.0,87,0.00,CLR,,0.00,WeatherDisplay:10.37,2013-12-15 02:14:00,
2013-12-14 21:19:00,21.0,17.8,30.09,ENE,59,0.0,10.0,87,0.00,CLR,,0.00,WeatherDisplay:10.37,2013-12-15 02:19:00,
2013-12-14 21:24:00,21.2,17.9,30.06,ENE,58,5.0,5.0,87,0.00,CLR,,0.00,WeatherDisplay:10.37,2013-12-15 02:24:00,
2013-12-14 21:29:00,21.2,17.9,30.06,ENE,57,2.0,5.0,87,0.00,CLR,,0.00,WeatherDisplay:10.37,2013-12-15 02:29:00,
2013-12-14 21:34:00,21.4,18.1,30.06,NNE,21,3.0,5.0,87,0.00,CLR,,0.00,WeatherDisplay:10.37,2013-12-15 02:34:00,
2013-12-14 21:39:00,21.6,18.3,30.03,North,5,2.0,5.0,87,0.00,CLR,,0.00,WeatherDisplay:10.37,2013-12-15 02:39:00,
2013-12-14 21:44:00,21.7,18.5,30.03,NE,49,2.0,3.0,87,0.00,CLR,,0.00,WeatherDisplay:10.37,2013-12-15 02:44:00,
2013-12-14 21:49:00,21.9,18.6,30.03,NE,51,2.0,3.0,87,0.00,CLR,,0.00,WeatherDisplay:10.37,2013-12-15 02:49:00,
2013-12-14 21:54:00,21.9,18.6,30.03,NE,37,1.0,3.0,87,0.00,CLR,,0.00,WeatherDisplay:10.37,2013-12-15 02:54:00,
2013-12-14 21:59:00,22.1,18.8,30.03,NE,50,2.0,3.0,87,0.00,CLR,,0.00,WeatherDisplay:10.37,2013-12-15 02:59:00,
2013-12-14 22:04:00,22.3,19.0,30.03,NE,56,2.0,3.0,87,0.00,CLR,,0.00,WeatherDisplay:10.37,2013-12-15 03:04:00,
2013-12-14 22:09:00,22.3,19.3,30.00,ENE,59,2.0,3.0,88,0.00,CLR,,0.00,WeatherDisplay:10.37,2013-12-15 03:09:00,
2013-12-14 22:14:00,22.5,19.4,30.00,NE,50,2.0,3.0,88,0.00,CLR,,0.00,WeatherDisplay:10.37,2013-12-15 03:14:00,
2013-12-14 22:19:00,22.6,19.6,30.00,NE,41,2.0,3.0,88,0.00,CLR,,0.00,WeatherDisplay:10.37,2013-12-15 03:19:00,
2013-12-14 22:24:00,22.8,19.8,30.00,NE,40,2.0,5.0,88,0.00,CLR,,0.00,WeatherDisplay:10.37,2013-12-15 03:24:00,
2013-12-14 22:29:00,22.8,19.8,30.00,NE,52,3.0,5.0,88,0.00,CLR,,0.00,WeatherDisplay:10.37,2013-12-15 03:29:00,
2013-12-14 22:39:00,23.0,20.0,30.00,SSE,156,2.0,3.0,88,0.00,CLR,,0.00,WeatherDisplay:10.37,2013-12-15 03:39:00,
2013-12-14 22:44:00,23.2,20.2,30.00,SSE,161,2.0,3.0,88,0.00,CLR,,0.00,WeatherDisplay:10.37,2013-12-15 03:44:00,
2013-12-14 22:49:00,23.4,20.3,30.00,East,98,2.0,4.0,88,0.00,CLR,,0.00,WeatherDisplay:10.37,2013-12-15 03:49:00,
2013-12-14 22:54:00,23.5,20.5,29.97,East,90,3.0,3.0,88,0.00,CLR,,0.00,WeatherDisplay:10.37,2013-12-15 03:54:00,
2013-12-14 22:59:00,23.5,20.5,29.97,East,85,3.0,3.0,88,0.00,CLR,,0.00,WeatherDisplay:10.37,2013-12-15 03:59:00,
2013-12-14 23:04:00,23.7,20.7,29.97,NE,49,1.0,3.0,88,0.00,CLR,,0.00,WeatherDisplay:10.37,2013-12-15 04:04:00,
2013-12-14 23:09:00,23.9,20.9,29.94,NE,42,2.0,4.0,88,0.00,CLR,,0.00,WeatherDisplay:10.37,2013-12-15 04:09:00,
2013-12-14 23:14:00,24.1,21.3,29.94,NE,49,2.0,4.0,89,0.00,CLR,,0.00,WeatherDisplay:10.37,2013-12-15 04:14:00,
2013-12-14 23:19:00,24.3,21.5,29.94,NNE,29,1.0,3.0,89,0.00,CLR,,0.00,WeatherDisplay:10.37,2013-12-15 04:19:00,
2013-12-14 23:24:00,24.4,21.6,29.94,NNE,17,1.0,3.0,89,0.00,CLR,,0.00,WeatherDisplay:10.37,2013-12-15 04:24:00,
2013-12-14 23:29:00,24.4,21.7,29.94,NNE,28,2.0,3.0,89,0.00,CLR,,0.00,WeatherDisplay:10.37,2013-12-15 04:29:00,
2013-12-14 23:34:00,24.6,21.8,29.94,ENE,65,2.0,2.0,89,0.00,CLR,,0.00,WeatherDisplay:10.37,2013-12-15 04:34:00,
2013-12-14 23:39:00,24.8,22.0,29.91,ENE,68,1.0,2.0,89,0.00,CLR,,0.00,WeatherDisplay:10.37,2013-12-15 04:39:00,
2013-12-14 23:44:00,25.0,22.2,29.91,ENE,68,2.0,3.0,89,0.00,CLR,,0.00,WeatherDisplay:10.37,2013-12-15 04:44:00,
2013-12-14 23:49:00,25.0,22.2,29.91,ENE,68,1.0,3.0,89,0.00,CLR,,0.00,WeatherDisplay:10.37,2013-12-15 04:49:00,
2013-12-14 23:54:00,25.2,22.4,29.88,ENE,68,2.0,3.0,89,0.00,CLR,,0.00,WeatherDisplay:10.37,2013-12-15 04:54:00,
2013-12-14 23:59:00,25.3,22.6,29.88,ENE,67,5.0,6.0,89,0.00,CLR,,0.00,WeatherDisplay:10.37,2013-12-15 04:59:00,